RH
80 82 82 84 86 84 82 82 78 75 73 70 67 63 57 54 54 56 59 62 63 62 58 50 47 45 45 46 47 47 49 50 50 52 55 56 58 61
79 82 79 78 80 83 82 80 83 77 78 73 70 71 67 62 59 58 57 57 60 59 57 56 53 50 48 48 48 50 52 55 57 57 59 62 66 71
82 78 76 78 78 80 81 79 78 81 77 77 79 76 72 72 66 63 63 63 64 63 62 61 58 56 56 57 59 60 60 62 63 65 66 68 70 76
83 85 79 80 79 80 80 80 76 73 73 72 80 83 77 77 77 74 70 69 70 71 74 72 70 65 63 64 65 66 68 68 68 69 73 75 81 87
84 84 82 82 82 82 83 81 80 80 78 77 78 82 83 80 82 83 79 77 75 75 75 77 74 72 71 69 70 71 73 74 76 78 80 83 86 89
83 85 84 86 85 83 86 83 83 84 82 81 82 83 85 85 77 80 84 79 78 78 73 72 72 72 72 73 76 76 78 80 82 84 86 84 91 93
85 84 84 87 89 88 88 88 87 87 86 85 85 84 86 87 83 82 84 82 78 79 76 72 77 81 83 86 84 86 87 88 88 88 88 90 98 97
89 94 93 92 96 88 99 93 95 97 98 94 92 89 88 92 93 91 91 89 86 94 86 85 87 88 91 90 90 93 92 90 90 92 91 97 98 98
97 98 98 98 98 94 99 96 99 99 98 96 94 93 98 96 99 97 98 93 88 93 92 87 89 89 88 87 89 95 94 93 97 95 96 97 96 99
94 96 97 98 96 97 99 98 99 96 97 93 93 94 90 95 97 98 94 93 91 91 90 85 85 94 95 92 96 94 90 87 86 89 93 96 96 92
96 99 93 97 96 97 95 96 96 95 92 93 93 90 93 92 94 95 91 96 92 92 93 88 87 92 97 95 92 91 91 89 86 88 89 90 89 87
87 89 89 93 94 98 97 95 93 91 89 94 90 88 89 90 93 91 94 94 91 90 89 89 91 93 96 95 93 91 86 87 90 88 87 85 85 81
85 86 85 86 86 91 94 92 90 91 89 88 90 97 91 87 88 87 89 93 89 90 91 95 97 89 90 88 90 88 88 85 81 81 84 83 80 76
84 78 79 82 79 77 77 80 85 87 88 85 86 89 91 88 94 86 87 86 84 97 98 92 98 93 84 85 89 87 86 84 82 81 81 79 79 77
75 86 84 81 76 72 68 66 67 72 71 71 74 79 80 87 88 83 81 81 86 86 91 92 91 92 86 97 87 86 87 88 88 84 86 82 81 84
70 67 75 82 72 72 65 63 66 66 62 62 63 65 64 69 69 66 72 81 81 83 85 86 88 93 89 90 86 87 86 86 85 87 87 88 91 90
51 57 62 62 66 67 65 65 65 64 60 60 60 63 65 68 71 69 63 64 66 70 75 74 84 84 89 89 89 90 88 89 93 85 86 91 91 91
44 47 46 50 53 54 57 56 58 58 56 54 54 54 55 57 62 68 72 71 69 69 69 66 76 80 86 89 88 85 85 89 90 87 88 94 95 86
42 39 38 38 36 40 43 47 48 49 51 49 49 48 50 50 51 54 58 64 68 72 72 73 74 82 85 84 82 82 87 87 85 84 86 86 91 90
35 33 34 30 27 30 27 30 35 37 33 30 31 33 40 46 50 51 51 53 55 60 69 75 78 81 83 89 85 84 84 83 85 87 86 87 86 87
37 35 32 31 30 28 24 20 18 20 24 25 27 26 29 35 40 46 48 48 54 55 59 65 72 83 83 89 88 85 87 88 88 91 89 91 87 86
36 35 35 34 32 32 32 30 25 22 21 21 21 22 26 28 29 32 37 44 48 49 52 63 62 67 81 83 86 86 92 94 90 91 86 83 80 82
41 40 39 38 38 35 34 33 34 30 26 22 17 15 23 29 29 38 41 42 45 47 53 58 65 73 68 75 84 91 98 96 90 85 83 84 82 80